Location: Bernay
(48.6766°N, 2.9386°E)
Time: 05:15:19
(UTC+00:00)

Cosmos 1666 Rocket - Pass Details

Date: 12 January 2026
Orbit: 598 x 625 km, 82.5° (Epoch: 17 February)

Event Time Altitude Azimuth Distance (km) Brightness Sun altitude
Rises 16:45:16 0° 357° (N) 2,916 6.8 -5.0°
Reaches altitude 10° 16:47:41 10° 7° (N) 2,007 5.9 -5.4°
Maximum altitude 16:51:45 34° 73° (ENE) 1,030 4.2 -6.0°
Drops below altitude 10° 16:55:48 10° 139° (SE) 1,996 6.0 -6.6°
Sets 16:58:11 0° 148° (SSE) 2,898 6.9 -6.9°
